Regional Weather Roundup
Issued by NWS

Home | Current Version | Previous Version | Graphics & Text | Print | Product List | Glossary On
Versions: 1 2 3 4 5 6 7 8 9 10 11 12 13 14 15 16 17 18 19 20 21 22 23 24 25 26 27 28 29 30 31 32 33 34 35 36 37 38 39 40 41 42 43 44 45 46 47 48 49 50
279
ASUS43 KIND 291859
RWRIN

WEATHER ROUNDUP FOR INDIANA
NATIONAL WEATHER SERVICE INDIANAPOLIS IN
300 PM EDT MON MAY 29 2017

NOTE: "FAIR" INDICATES FEW OR NO CLOUDS BELOW 12,000 FEET WITH NO
SIGNIFICANT WEATHER AND/OR OBSTRUCTIONS TO VISIBILITY.

* - STATION DOES NOT REPORT WEATHER SUCH AS PRECIPITATION OR FOG.

+ - STATION NOT QUALITY CONTROLLED BY THE NATIONAL WEATHER SERVICE.
    USE DATA WITH CAUTION...ESPECIALLY DEWPOINT AND RELATIVE
    HUMIDITY OBSERVATIONS.

INZ001>003-010>013-019-020-292000-
NORTHWEST INDIANA

CITY           SKY/WX    TMP DP  RH WIND       PRES   REMARKS
GARY /AIRPORT/ MOSUNNY   79  41  25 W26       29.84F
KNOX *+        MOSUNNY   79  36  21 W20G29    29.84F
LA PORTE +     SUNNY     77  49  36 W21G28    29.85F
MICHIGAN CITY+ MOSUNNY   75  45  33 SW14G28   29.84F
MONTICELLO +   MOSUNNY   80  45  28 W15G25    29.86S
RENSSELAER +   PTSUNNY   81  32  17 W22G28    29.86S

$$

LMZ046-743>745-292000-
SOUTHERN LAKE MICHIGAN

STATION/POSITION TIME  TEMP    WIND        PRES    WAVE
                       AIR SEA DIR/SP/G            HT
                 (UTC) (F)     (DEG/KT/KT) (MB)    (FT)
BURNS HARBOR     1840   73     240/ 24/ 30 1010.5F
MICHIGAN CITY    1830   66     220/ 15/ 16   N/A
5NW MICH CITY    1850   65 56  250/ 12/ 16   N/A     1

$$

INZ004-005-014>016-021>024-292000-
NORTH CENTRAL INDIANA

CITY           SKY/WX    TMP DP  RH WIND       PRES   REMARKS
ELKHART        CLOUDY    75  45  33 W21G26    29.84S
GOSHEN         PTSUNNY   77  46  33 W21       29.84F
LOGANSPORT +   PTSUNNY   79  50  36 W22       29.87F
SOUTH BEND     PTSUNNY   77  46  33 W24G36    29.84S
WARSAW +       PTSUNNY   77  46  33 W18G32    29.85F

$$

INZ006>009-017-018-025>027-292000-
NORTHEAST INDIANA

CITY           SKY/WX    TMP DP  RH WIND       PRES   REMARKS
ANGOLA *+      SUNNY     79  48  34 W13       29.84F
AUBURN +       MOSUNNY   75  46  35 W9G18     29.87S
FORT WAYNE     MOSUNNY   78  52  40 W16       29.87F
HUNTINGTON +   SUNNY     77  46  32 SW14G21   29.87F
KENDALLVILLE + PTSUNNY   78  47  32 SW18G25   29.86F

$$

INZ028-029-035-036-043>045-051>053-292000-
WEST CENTRAL INDIANA

CITY           SKY/WX    TMP DP  RH WIND       PRES   REMARKS
CRAWFORDSVL +  MOSUNNY   -6 -23  45 SW12      29.90S WCI -25
GREENCASTLE +  SUNNY     79  50  36 SW6G17    29.91F
LAFAYETTE      MOSUNNY   79  48  33 SW17G26   29.86F
TERRE HAUTE    SUNNY     81  50  33 SW17      29.91F

$$

INZ030>032-037>040-046>048-054>057-064-065-292000-
CENTRAL INDIANA

CITY           SKY/WX    TMP DP  RH WIND       PRES   REMARKS
CP ATTERBURY + PTSUNNY   79  52  38 SW14G22   29.93S
COLUMBUS       MOSUNNY   81  46  30 SW21      29.93F
FRANKFORT +    MOSUNNY   82  54  38 W17       29.91S
GREENWOOD *+   PTSUNNY   78  53  41 W10G20    29.92F
INDIANAPOLIS   MOSUNNY   80  52  37 W21G28    29.90F
-EAGLE CREEK   SUNNY     80  48  32 W10G17    29.90F
KOKOMO +       MOSUNNY   79  50  36 W17G23    29.89F
SHELBYVILLE    MOSUNNY   82  53  36 W18G28    29.90F

$$

INZ033-034-041-042-049-050-058-059-292000-
EAST CENTRAL INDIANA

CITY           SKY/WX    TMP DP  RH WIND       PRES   REMARKS
MUNCIE         SUNNY     81  45  28 W14G26    29.89F
RICHMOND +     MOSUNNY   77  54  44 W15G23    29.94S

$$

INZ060-061-067>069-081>083-085>088-292000-
SOUTHWEST INDIANA

CITY           SKY/WX    TMP DP  RH WIND       PRES   REMARKS
EVANSVILLE     PTSUNNY   84  54  35 SW13      29.95F
HUNTINGBURG *+ PTSUNNY   79  56  45 SW12      29.95F
WASHINGTON +   MOSUNNY   83  49  30 SW16G22   29.92F

$$

INZ062-063-066-070>080-084-089>092-292000-
SOUTH CENTRAL AND SOUTHEAST INDIANA

CITY           SKY/WX    TMP DP  RH WIND       PRES   REMARKS
BLOOMINGTON    MOSUNNY   83  51  33 SW14G21   29.93F
MADISON *+     MOSUNNY   81  45  28 SW13G23   29.97F
SEYMOUR +      MOSUNNY   82  55  39 SW13      29.93F

$$





USA.gov is the U.S. government's official web portal to all federal, state and local government web resources and services.